Powrót do katalogu

ATLAS 5 CENTAUR DEB

AktywnyHEO
NORAD 44686·DEBRIS·🇺🇸 United States

Wystrzelony Oct 17, 2018 z Cape Canaveral Space Force Station

Loading…

Następne Przeloty (najbliższe 24 godziny)

TLE

Starzejące sięSource: Space-Track

Epoka: Sep 1, 2026, 21:11 UTC

1 44686U 18079AY  26244.88302073 -.00000121  00000-0  00000+0 0  9996
2 44686  12.7781  67.9238 4630175 249.3876  56.1617  1.69097359 44874

Śledź ATLAS 5 CENTAUR DEB w czasie rzeczywistym z AllMySat

Download on the App Store